| time (UTC) | temp C | wind direction | speed KPH | gust KPH | rain 1hr cm | rain 24hr cm | rain mn cm | humidity % | barometer mb |
| 20260906205656 | 22 | 122 | 6.4 | 12.9 | 0.00 | 0.00 | 0.00 | 90 | 1015.9 |
| 20260906205156 | 22 | 133 | 8.0 | 17.7 | 0.00 | 0.00 | 0.00 | 89 | 1016.1 |
| 20260906204656 | 22 | 114 | 8.0 | 16.1 | 0.00 | 0.00 | 0.00 | 88 | 1016.1 |
| 20260906204156 | 22 | 113 | 6.4 | 14.5 | 0.00 | 0.00 | 0.00 | 88 | 1016.2 |
| 20260906203656 | 22 | 147 | 6.4 | 9.7 | 0.00 | 0.00 | 0.00 | 87 | 1016.1 |
| 20260906203156 | 23 | 128 | 4.8 | 14.5 | 0.00 | 0.00 | 0.00 | 87 | 1016.0 |
| 20260906202656 | 23 | 149 | 4.8 | 9.7 | 0.00 | 0.00 | 0.00 | 86 | 1016.0 |
| 20260906202156 | 23 | 142 | 4.8 | 12.9 | 0.00 | 0.00 | 0.00 | 86 | 1016.2 |
| 20260906201656 | 23 | 194 | 4.8 | 11.3 | 0.00 | 0.00 | 0.00 | 85 | 1016.3 |
| 20260906201156 | 23 | 132 | 6.4 | 14.5 | 0.00 | 0.00 | 0.00 | 84 | 1016.2 |
| 20260906200656 | 23 | 142 | 6.4 | 19.3 | 0.00 | 0.00 | 0.00 | 84 | 1016.2 |
| 20260906200156 | 23 | 169 | 8.0 | 19.3 | 0.00 | 0.00 | 0.00 | 83 | 1016.4 |
| 20260906195656 | 24 | 191 | 8.0 | 17.7 | 0.00 | 0.00 | 0.00 | 82 | 1016.3 |
| 20260906195156 | 24 | 194 | 8.0 | 16.1 | 0.00 | 0.00 | 0.00 | 82 | 1016.4 |
| 20260906194729 | 24 | 182 | 9.7 | 24.1 | 0.00 | 0.00 | 0.00 | 81 | 1016.4 |
| 20260906194656 | 24 | 182 | 9.7 | 24.1 | 0.00 | 0.00 | 0.00 | 81 | 1016.4 |
| 20260906194156 | 25 | 191 | 9.7 | 22.5 | 0.00 | 0.00 | 0.00 | 80 | 1016.1 |
| 20260906193656 | 25 | 238 | 6.4 | 17.7 | 0.00 | 0.00 | 0.00 | 80 | 1016.1 |
| 20260906193156 | 25 | 171 | 4.8 | 14.5 | 0.00 | 0.00 | 0.00 | 78 | 1015.7 |
| 20260906192656 | 25 | 130 | 6.4 | 16.1 | 0.00 | 0.00 | 0.00 | 78 | 1015.6 |
| 20260906192156 | 26 | 155 | 8.0 | 16.1 | 0.00 | 0.00 | 0.00 | 77 | 1015.5 |
| 20260906192115 | 26 | 141 | 8.0 | 17.7 | 0.00 | 0.00 | 0.00 | 77 | 1015.5 |
| 20260906191732 | 26 | 141 | 8.0 | 17.7 | 0.00 | 0.00 | 0.00 | 77 | 1015.5 |
| 20260906191656 | 26 | 141 | 8.0 | 17.7 | 0.00 | 0.00 | 0.00 | 77 | 1015.5 |
| 20260906191156 | 26 | 214 | 8.0 | 17.7 | 0.00 | 0.00 | 0.00 | 76 | 1015.4 |
| 20260906190656 | 26 | 147 | 6.4 | 16.1 | 0.00 | 0.00 | 0.00 | 76 | 1015.4 |
| 20260906190156 | 26 | 157 | 6.4 | 16.1 | 0.00 | 0.00 | 0.00 | 75 | 1015.3 |
| 20260906185727 | 26 | 146 | 8.0 | 14.5 | 0.00 | 0.00 | 0.00 | 75 | 1015.3 |
| 20260906185656 | 26 | 146 | 8.0 | 14.5 | 0.00 | 0.00 | 0.00 | 75 | 1015.3 |
| 20260906185157 | 26 | 205 | 9.7 | 17.7 | 0.00 | 0.00 | 0.00 | 74 | 1015.4 |
| 20260906184942 | 27 | 200 | 8.0 | 17.7 | 0.00 | 0.00 | 0.00 | 74 | 1015.4 |
| 20260906184809 | 27 | 200 | 8.0 | 17.7 | 0.00 | 0.00 | 0.00 | 74 | 1015.4 |
| 20260906184727 | 27 | 200 | 8.0 | 17.7 | 0.00 | 0.00 | 0.00 | 74 | 1015.4 |
| 20260906184656 | 27 | 200 | 8.0 | 17.7 | 0.00 | 0.00 | 0.00 | 74 | 1015.4 |
| 20260906184156 | 27 | 184 | 6.4 | 19.3 | 0.00 | 0.00 | 0.00 | 74 | 1015.3 |
| 20260906183656 | 27 | 101 | 6.4 | 12.9 | 0.00 | 0.00 | 0.00 | 73 | 1015.3 |
| 20260906183156 | 27 | 183 | 8.0 | 19.3 | 0.00 | 0.00 | 0.00 | 74 | 1015.4 |
| 20260906182810 | 27 | 130 | 6.4 | 17.7 | 0.00 | 0.00 | 0.00 | 73 | 1015.5 |
| 20260906182728 | 27 | 130 | 6.4 | 17.7 | 0.00 | 0.00 | 0.00 | 73 | 1015.5 |
| 20260906182656 | 27 | 130 | 6.4 | 17.7 | 0.00 | 0.00 | 0.00 | 73 | 1015.5 |
| 20260906182156 | 27 | 150 | 6.4 | 11.3 | 0.00 | 0.00 | 0.00 | 74 | 1015.5 |
| 20260906181728 | 27 | 206 | 6.4 | 12.9 | 0.00 | 0.00 | 0.00 | 74 | 1015.5 |
| 20260906181656 | 27 | 206 | 6.4 | 12.9 | 0.00 | 0.00 | 0.00 | 74 | 1015.5 |
| 20260906181156 | 27 | 85 | 6.4 | 19.3 | 0.00 | 0.00 | 0.00 | 75 | 1015.5 |
| 20260906180656 | 26 | 201 | 6.4 | 14.5 | 0.00 | 0.00 | 0.00 | 75 | 1015.7 |
| 20260906180157 | 26 | 117 | 4.8 | 14.5 | 0.00 | 0.00 | 0.00 | 75 | 1015.7 |
| 20260906175657 | 26 | 180 | 4.8 | 12.9 | 0.00 | 0.00 | 0.00 | 76 | 1015.8 |
| 20260906175230 | 26 | 190 | 6.4 | 12.9 | 0.00 | 0.00 | 0.00 | 76 | 1015.8 |
| 20260906175156 | 26 | 190 | 6.4 | 12.9 | 0.00 | 0.00 | 0.00 | 76 | 1015.8 |
| 20260906174657 | 26 | 245 | 8.0 | 12.9 | 0.00 | 0.00 | 0.00 | 77 | 1015.6 |
| 20260906174157 | 26 | 103 | 8.0 | 16.1 | 0.00 | 0.00 | 0.00 | 76 | 1015.6 |
| 20260906173657 | 26 | 120 | 6.4 | 11.3 | 0.00 | 0.00 | 0.00 | 76 | 1015.7 |
| 20260906173156 | 26 | 169 | 4.8 | 11.3 | 0.00 | 0.00 | 0.00 | 76 | 1015.7 |
| 20260906172657 | 26 | 138 | 4.8 | 9.7 | 0.00 | 0.00 | 0.00 | 76 | 1015.7 |
| 20260906172157 | 26 | 192 | 6.4 | 12.9 | 0.00 | 0.00 | 0.00 | 76 | 1015.7 |
| 20260906171657 | 26 | 172 | 4.8 | 16.1 | 0.00 | 0.00 | 0.00 | 77 | 1015.6 |
| 20260906171157 | 26 | 167 | 4.8 | 16.1 | 0.00 | 0.00 | 0.00 | 77 | 1015.7 |
| 20260906170657 | 26 | 157 | 6.4 | 16.1 | 0.00 | 0.00 | 0.00 | 77 | 1015.8 |
| 20260906170157 | 26 | 186 | 6.4 | 17.7 | 0.00 | 0.00 | 0.00 | 78 | 1015.8 |
| 20260906165657 | 26 | 202 | 4.8 | 19.3 | 0.00 | 0.00 | 0.00 | 78 | 1015.9 |
| 20260906165157 | 25 | 126 | 4.8 | 12.9 | 0.00 | 0.00 | 0.00 | 80 | 1016.2 |
| 20260906164759 | 25 | 124 | 4.8 | 16.1 | 0.00 | 0.00 | 0.00 | 79 | 1016.4 |
| 20260906164728 | 25 | 124 | 4.8 | 16.1 | 0.00 | 0.00 | 0.00 | 79 | 1016.4 |
| 20260906164657 | 25 | 124 | 4.8 | 16.1 | 0.00 | 0.00 | 0.00 | 79 | 1016.4 |
| 20260906164157 | 25 | 114 | 3.2 | 14.5 | 0.00 | 0.00 | 0.00 | 80 | 1016.5 |
| 20260906163657 | 25 | 220 | 3.2 | 8.0 | 0.00 | 0.00 | 0.00 | 82 | 1016.7 |
| 20260906163157 | 25 | 140 | 6.4 | 16.1 | 0.00 | 0.00 | 0.00 | 82 | 1016.6 |
| 20260906162657 | 25 | 128 | 6.4 | 12.9 | 0.00 | 0.00 | 0.00 | 81 | 1016.5 |
| 20260906162157 | 24 | 115 | 6.4 | 17.7 | 0.00 | 0.00 | 0.00 | 82 | 1016.4 |
| 20260906162119 | 24 | 101 | 4.8 | 14.5 | 0.00 | 0.00 | 0.00 | 83 | 1016.5 |
| 20260906161728 | 24 | 101 | 4.8 | 14.5 | 0.00 | 0.00 | 0.00 | 83 | 1016.5 |
| 20260906161657 | 24 | 101 | 4.8 | 14.5 | 0.00 | 0.00 | 0.00 | 83 | 1016.5 |
| 20260906161237 | 24 | 217 | 4.8 | 11.3 | 0.00 | 0.00 | 0.00 | 83 | 1016.7 |
| 20260906161157 | 24 | 217 | 4.8 | 11.3 | 0.00 | 0.00 | 0.00 | 83 | 1016.7 |
| 20260906160657 | 24 | 198 | 4.8 | 11.3 | 0.00 | 0.00 | 0.00 | 84 | 1016.8 |
| 20260906160157 | 23 | 160 | 4.8 | 9.7 | 0.00 | 0.00 | 0.00 | 84 | 1016.8 |
| 20260906155657 | 23 | 134 | 4.8 | 9.7 | 0.00 | 0.00 | 0.00 | 85 | 1016.8 |
| 20260906155157 | 23 | 210 | 4.8 | 8.0 | 0.00 | 0.00 | 0.00 | 85 | 1016.9 |
| 20260906155038 | 23 | 183 | 4.8 | 11.3 | 0.00 | 0.00 | 0.00 | 85 | 1016.9 |
| 20260906154729 | 23 | 183 | 4.8 | 11.3 | 0.00 | 0.00 | 0.00 | 85 | 1016.9 |
| 20260906154657 | 23 | 183 | 4.8 | 11.3 | 0.00 | 0.00 | 0.00 | 85 | 1016.9 |
| 20260906154157 | 23 | 148 | 6.4 | 12.9 | 0.00 | 0.00 | 0.00 | 86 | 1016.7 |
| 20260906153728 | 23 | 150 | 6.4 | 17.7 | 0.00 | 0.00 | 0.00 | 86 | 1016.5 |
| 20260906153657 | 23 | 150 | 6.4 | 17.7 | 0.00 | 0.00 | 0.00 | 86 | 1016.5 |
| 20260906153233 | 23 | 123 | 6.4 | 12.9 | 0.00 | 0.00 | 0.00 | 86 | 1016.6 |
| 20260906153157 | 23 | 123 | 6.4 | 12.9 | 0.00 | 0.00 | 0.00 | 86 | 1016.6 |
| 20260906152733 | 23 | 121 | 6.4 | 16.1 | 0.00 | 0.00 | 0.00 | 86 | 1016.7 |
| 20260906152657 | 23 | 121 | 6.4 | 16.1 | 0.00 | 0.00 | 0.00 | 86 | 1016.7 |
| 20260906152157 | 23 | 119 | 6.4 | 14.5 | 0.00 | 0.00 | 0.00 | 85 | 1016.6 |
| 20260906151743 | 23 | 229 | 6.4 | 16.1 | 0.00 | 0.00 | 0.00 | 86 | 1016.8 |
| 20260906151657 | 23 | 229 | 6.4 | 16.1 | 0.00 | 0.00 | 0.00 | 86 | 1016.8 |
| 20260906151157 | 23 | 172 | 4.8 | 12.9 | 0.00 | 0.00 | 0.00 | 88 | 1017.0 |
| 20260906150804 | 22 | 100 | 4.8 | 11.3 | 0.00 | 0.00 | 0.00 | 90 | 1016.9 |
| 20260906150657 | 22 | 100 | 4.8 | 11.3 | 0.00 | 0.00 | 0.00 | 90 | 1016.9 |
| 20260906150157 | 22 | 227 | 6.4 | 12.9 | 0.00 | 0.00 | 0.00 | 92 | 1016.9 |
| 20260906145657 | 22 | 118 | 6.4 | 16.1 | 0.00 | 0.00 | 0.00 | 93 | 1016.9 |
| 20260906145514 | 21 | 107 | 6.4 | 14.5 | 0.00 | 0.00 | 0.00 | 94 | 1017.0 |
| 20260906145157 | 21 | 107 | 6.4 | 14.5 | 0.00 | 0.00 | 0.00 | 94 | 1017.0 |
| 20260906144729 | 21 | 138 | 4.8 | 12.9 | 0.00 | 0.00 | 0.00 | 94 | 1016.9 |
| 20260906144657 | 21 | 138 | 4.8 | 12.9 | 0.00 | 0.00 | 0.00 | 94 | 1016.9 |
| 20260906144157 | 21 | 115 | 4.8 | 9.7 | 0.00 | 0.00 | 0.00 | 95 | 1017.2 |
| 20260906143733 | 20 | 117 | 6.4 | 11.3 | 0.00 | 0.00 | 0.00 | 95 | 1017.1 |
| 20260906143657 | 20 | 117 | 6.4 | 11.3 | 0.00 | 0.00 | 0.00 | 95 | 1017.1 |
| 20260906143157 | 20 | 133 | 6.4 | 11.3 | 0.00 | 0.00 | 0.00 | 95 | 1017.1 |
| 20260906142728 | 20 | 117 | 4.8 | 12.9 | 0.00 | 0.00 | 0.00 | 96 | 1017.1 |
| 20260906142657 | 20 | 117 | 4.8 | 12.9 | 0.00 | 0.00 | 0.00 | 96 | 1017.1 |
| 20260906142228 | 20 | 126 | 4.8 | 9.7 | 0.00 | 0.00 | 0.00 | 96 | 1017.3 |
| 20260906142157 | 20 | 126 | 4.8 | 9.7 | 0.00 | 0.00 | 0.00 | 96 | 1017.3 |
| 20260906141802 | 20 | 126 | 3.2 | 11.3 | 0.00 | 0.00 | 0.00 | 96 | 1017.3 |
| 20260906141728 | 20 | 126 | 3.2 | 11.3 | 0.00 | 0.00 | 0.00 | 96 | 1017.3 |
| 20260906141657 | 20 | 126 | 3.2 | 11.3 | 0.00 | 0.00 | 0.00 | 96 | 1017.3 |
| 20260906141408 | 20 | 135 | 3.2 | 8.0 | 0.00 | 0.00 | 0.00 | 96 | 1017.3 |
| 20260906141157 | 20 | 135 | 3.2 | 8.0 | 0.00 | 0.00 | 0.00 | 96 | 1017.3 |
| 20260906140730 | 20 | 97 | 3.2 | 6.4 | 0.00 | 0.00 | 0.00 | 97 | 1017.1 |
| 20260906140657 | 20 | 97 | 3.2 | 6.4 | 0.00 | 0.00 | 0.00 | 97 | 1017.1 |
| 20260906140609 | 20 | 107 | 3.2 | 9.7 | 0.00 | 0.00 | 0.00 | 97 | 1017.0 |
| 20260906140348 | 20 | 107 | 3.2 | 9.7 | 0.00 | 0.00 | 0.00 | 97 | 1017.0 |
| 20260906140301 | 20 | 107 | 3.2 | 9.7 | 0.00 | 0.00 | 0.00 | 97 | 1017.0 |
| 20260906140258 | 20 | 107 | 3.2 | 9.7 | 0.00 | 0.00 | 0.00 | 97 | 1017.0 |
| 20260906140203 | 20 | 107 | 3.2 | 9.7 | 0.00 | 0.00 | 0.00 | 97 | 1017.0 |
| 20260906140157 | 20 | 107 | 3.2 | 9.7 | 0.00 | 0.00 | 0.00 | 97 | 1017.0 |
| 20260906135712 | 19 | 129 | 3.2 | 8.0 | 0.00 | 0.00 | 0.00 | 97 | 1017.1 |
| 20260906135657 | 19 | 129 | 3.2 | 8.0 | 0.00 | 0.00 | 0.00 | 97 | 1017.1 |
| 20260906135305 | 19 | 129 | 3.2 | 6.4 | 0.00 | 0.00 | 0.00 | 97 | 1017.1 |
| 20260906135157 | 19 | 129 | 3.2 | 6.4 | 0.00 | 0.00 | 0.00 | 97 | 1017.1 |
| 20260906134657 | 19 | 127 | 3.2 | 9.7 | 0.00 | 0.00 | 0.00 | 96 | 1017.1 |
| 20260906134228 | 18 | 124 | 3.2 | 6.4 | 0.00 | 0.00 | 0.00 | 96 | 1017.0 |
| 20260906134157 | 18 | 124 | 3.2 | 6.4 | 0.00 | 0.00 | 0.00 | 96 | 1017.0 |
| 20260906133657 | 18 | 127 | 4.8 | 9.7 | 0.00 | 0.00 | 0.00 | 97 | 1016.8 |
| 20260906133157 | 18 | 139 | 4.8 | 12.9 | 0.00 | 0.00 | 0.00 | 97 | 1016.7 |
| 20260906132728 | 18 | 119 | 6.4 | 8.0 | 0.00 | 0.00 | 0.00 | 96 | 1016.7 |
| 20260906132657 | 18 | 119 | 6.4 | 8.0 | 0.00 | 0.00 | 0.00 | 96 | 1016.7 |
| 20260906132345 | 18 | 132 | 8.0 | 14.5 | 0.00 | 0.00 | 0.00 | 96 | 1016.6 |
| 20260906132309 | 18 | 132 | 8.0 | 14.5 | 0.00 | 0.00 | 0.00 | 96 | 1016.6 |
| 20260906132228 | 18 | 132 | 8.0 | 14.5 | 0.00 | 0.00 | 0.00 | 96 | 1016.6 |
| 20260906132157 | 18 | 132 | 8.0 | 14.5 | 0.00 | 0.00 | 0.00 | 96 | 1016.6 |
| 20260906131742 | 18 | 114 | 8.0 | 16.1 | 0.00 | 0.00 | 0.00 | 96 | 1016.5 |
| 20260906131657 | 18 | 114 | 8.0 | 16.1 | 0.00 | 0.00 | 0.00 | 96 | 1016.5 |
| 20260906131500 | 18 | 101 | 6.4 | 14.5 | 0.00 | 0.00 | 0.00 | 96 | 1016.5 |
| 20260906131235 | 18 | 101 | 6.4 | 14.5 | 0.00 | 0.00 | 0.00 | 96 | 1016.5 |
| 20260906131157 | 18 | 101 | 6.4 | 14.5 | 0.00 | 0.00 | 0.00 | 96 | 1016.5 |
| 20260906130729 | 18 | 109 | 4.8 | 11.3 | 0.00 | 0.00 | 0.00 | 97 | 1016.5 |
| 20260906130657 | 18 | 109 | 4.8 | 11.3 | 0.00 | 0.00 | 0.00 | 97 | 1016.5 |
| 20260906130230 | 18 | 96 | 3.2 | 6.4 | 0.00 | 0.00 | 0.00 | 96 | 1016.7 |
| 20260906130157 | 18 | 96 | 3.2 | 6.4 | 0.00 | 0.00 | 0.00 | 96 | 1016.7 |
| 20260906125934 | 18 | 85 | 3.2 | 6.4 | 0.00 | 0.00 | 0.00 | 96 | 1016.8 |
| 20260906125728 | 18 | 85 | 3.2 | 6.4 | 0.00 | 0.00 | 0.00 | 96 | 1016.8 |
| 20260906125657 | 18 | 85 | 3.2 | 6.4 | 0.00 | 0.00 | 0.00 | 96 | 1016.8 |
| 20260906125157 | 18 | 82 | 1.6 | 4.8 | 0.00 | 0.00 | 0.00 | 96 | 1016.7 |
| 20260906124800 | 18 | 88 | 1.6 | 4.8 | 0.00 | 0.00 | 0.00 | 96 | 1016.7 |
| 20260906124727 | 18 | 88 | 1.6 | 4.8 | 0.00 | 0.00 | 0.00 | 96 | 1016.7 |
| 20260906124657 | 18 | 88 | 1.6 | 4.8 | 0.00 | 0.00 | 0.00 | 96 | 1016.7 |
| 20260906124230 | 17 | 88 | 1.6 | 4.8 | 0.00 | 0.00 | 0.00 | 96 | 1016.6 |
| 20260906124157 | 17 | 88 | 1.6 | 4.8 | 0.00 | 0.00 | 0.00 | 96 | 1016.6 |
| 20260906123737 | 17 | 88 | 0.0 | 3.2 | 0.00 | 0.00 | 0.00 | 96 | 1016.5 |
| 20260906123657 | 17 | 88 | 0.0 | 3.2 | 0.00 | 0.00 | 0.00 | 96 | 1016.5 |
| 20260906123313 | 17 | 99 | 1.6 | 3.2 | 0.00 | 0.00 | 0.00 | 96 | 1016.4 |
| 20260906123157 | 17 | 99 | 1.6 | 3.2 | 0.00 | 0.00 | 0.00 | 96 | 1016.4 |
| 20260906122733 | 17 | 135 | 3.2 | 6.4 | 0.00 | 0.00 | 0.00 | 96 | 1016.4 |
| 20260906122657 | 17 | 135 | 3.2 | 6.4 | 0.00 | 0.00 | 0.00 | 96 | 1016.4 |
| 20260906122157 | 17 | 128 | 3.2 | 6.4 | 0.00 | 0.00 | 0.00 | 96 | 1016.4 |
| 20260906121657 | 17 | 126 | 3.2 | 6.4 | 0.00 | 0.00 | 0.00 | 96 | 1016.3 |
| 20260906121229 | 17 | 118 | 3.2 | 4.8 | 0.00 | 0.00 | 0.00 | 96 | 1016.3 |
| 20260906121157 | 17 | 118 | 3.2 | 4.8 | 0.00 | 0.00 | 0.00 | 96 | 1016.3 |
| 20260906120743 | 17 | 118 | 3.2 | 6.4 | 0.00 | 0.00 | 0.00 | 96 | 1016.2 |
| 20260906120657 | 17 | 118 | 3.2 | 6.4 | 0.00 | 0.00 | 0.00 | 96 | 1016.2 |
| 20260906120157 | 17 | 120 | 3.2 | 6.4 | 0.00 | 0.00 | 0.00 | 96 | 1016.2 |
| 20260906115657 | 17 | 120 | 4.8 | 9.7 | 0.00 | 0.00 | 0.00 | 96 | 1016.2 |
| 20260906115548 | 17 | 113 | 4.8 | 9.7 | 0.00 | 0.00 | 0.00 | 96 | 1016.2 |
| 20260906115157 | 17 | 113 | 4.8 | 9.7 | 0.00 | 0.00 | 0.00 | 96 | 1016.2 |
| 20260906114913 | 17 | 120 | 4.8 | 9.7 | 0.00 | 0.00 | 0.00 | 96 | 1016.2 |
| 20260906114657 | 17 | 120 | 4.8 | 9.7 | 0.00 | 0.00 | 0.00 | 96 | 1016.2 |
| 20260906114234 | 17 | 129 | 4.8 | 9.7 | 0.00 | 0.00 | 0.00 | 96 | 1016.3 |
| 20260906114157 | 17 | 129 | 4.8 | 9.7 | 0.00 | 0.00 | 0.00 | 96 | 1016.3 |
| 20260906113822 | 17 | 135 | 4.8 | 8.0 | 0.00 | 0.00 | 0.00 | 96 | 1016.4 |
| 20260906113729 | 17 | 135 | 4.8 | 8.0 | 0.00 | 0.00 | 0.00 | 96 | 1016.4 |
| 20260906113657 | 17 | 135 | 4.8 | 8.0 | 0.00 | 0.00 | 0.00 | 96 | 1016.4 |
| 20260906113443 | 17 | 135 | 4.8 | 11.3 | 0.00 | 0.00 | 0.00 | 96 | 1016.3 |
| 20260906113402 | 17 | 135 | 4.8 | 11.3 | 0.00 | 0.00 | 0.00 | 96 | 1016.3 |
| 20260906113228 | 17 | 135 | 4.8 | 11.3 | 0.00 | 0.00 | 0.00 | 96 | 1016.3 |
| 20260906113157 | 17 | 135 | 4.8 | 11.3 | 0.00 | 0.00 | 0.00 | 96 | 1016.3 |
| 20260906112729 | 17 | 120 | 6.4 | 11.3 | 0.00 | 0.00 | 0.00 | 96 | 1016.2 |
| 20260906112657 | 17 | 120 | 6.4 | 11.3 | 0.00 | 0.00 | 0.00 | 96 | 1016.2 |
| 20260906112544 | 17 | 119 | 4.8 | 11.3 | 0.00 | 0.00 | 0.00 | 96 | 1016.2 |
| 20260906112234 | 17 | 119 | 4.8 | 11.3 | 0.00 | 0.00 | 0.00 | 96 | 1016.2 |
| 20260906112213 | 17 | 119 | 4.8 | 11.3 | 0.00 | 0.00 | 0.00 | 96 | 1016.2 |
| 20260906112157 | 17 | 119 | 4.8 | 11.3 | 0.00 | 0.00 | 0.00 | 96 | 1016.2 |
| 20260906111731 | 17 | 126 | 6.4 | 9.7 | 0.00 | 0.00 | 0.00 | 96 | 1016.3 |
| 20260906111709 | -17 | 126 | 6.4 | 9.7 | 0.00 | 0.00 | 0.00 | 96 | 1016.3 |
| 20260906111657 | 17 | 126 | 6.4 | 9.7 | 0.00 | 0.00 | 0.00 | 96 | 1016.3 |
| 20260906111443 | 17 | 129 | 6.4 | 11.3 | 0.00 | 0.00 | 0.00 | 96 | 1016.3 |
| 20260906111251 | 17 | 129 | 6.4 | 11.3 | 0.00 | 0.00 | 0.00 | 96 | 1016.3 |
| 20260906111157 | 17 | 129 | 6.4 | 11.3 | 0.00 | 0.00 | 0.00 | 96 | 1016.3 |
| 20260906110732 | 17 | 126 | 6.4 | 11.3 | 0.00 | 0.00 | 0.00 | 96 | 1016.3 |
| 20260906110657 | 17 | 126 | 6.4 | 11.3 | 0.00 | 0.00 | 0.00 | 96 | 1016.3 |
| 20260906110522 | 17 | 128 | 6.4 | 11.3 | 0.00 | 0.00 | 0.00 | 96 | 1016.4 |
| 20260906110235 | 17 | 128 | 6.4 | 11.3 | 0.00 | 0.00 | 0.00 | 96 | 1016.4 |
| 20260906110157 | 17 | 128 | 6.4 | 11.3 | 0.00 | 0.00 | 0.00 | 96 | 1016.4 |
| 20260906105833 | 17 | 122 | 6.4 | 11.3 | 0.00 | 0.00 | 0.00 | 96 | 1016.5 |
| 20260906105730 | 17 | 122 | 6.4 | 11.3 | 0.00 | 0.00 | 0.00 | 96 | 1016.5 |
| 20260906105657 | 17 | 122 | 6.4 | 11.3 | 0.00 | 0.00 | 0.00 | 96 | 1016.5 |
| 20260906105157 | 17 | 115 | 4.8 | 9.7 | 0.00 | 0.00 | 0.00 | 96 | 1016.4 |
| 20260906104737 | 17 | 113 | 4.8 | 9.7 | 0.00 | 0.00 | 0.00 | 96 | 1016.4 |
| 20260906104657 | 17 | 113 | 4.8 | 9.7 | 0.00 | 0.00 | 0.00 | 96 | 1016.4 |
| 20260906104157 | 17 | 123 | 3.2 | 6.4 | 0.00 | 0.00 | 0.00 | 96 | 1016.4 |
| 20260906103657 | 17 | 88 | 3.2 | 4.8 | 0.00 | 0.00 | 0.00 | 96 | 1016.4 |
| 20260906103157 | 17 | 88 | 3.2 | 4.8 | 0.00 | 0.00 | 0.00 | 95 | 1016.4 |
| 20260906103007 | 17 | 88 | 3.2 | 3.2 | 0.00 | 0.00 | 0.00 | 95 | 1016.5 |
| 20260906102728 | 17 | 88 | 3.2 | 3.2 | 0.00 | 0.00 | 0.00 | 95 | 1016.5 |
| 20260906102657 | 17 | 88 | 3.2 | 3.2 | 0.00 | 0.00 | 0.00 | 95 | 1016.5 |
| 20260906102157 | 17 | 88 | 1.6 | 4.8 | 0.00 | 0.00 | 0.00 | 95 | 1016.5 |
| 20260906101657 | 17 | 88 | 1.6 | 4.8 | 0.00 | 0.00 | 0.00 | 95 | 1016.5 |
| 20260906101228 | 18 | 113 | 1.6 | 3.2 | 0.00 | 0.00 | 0.00 | 95 | 1016.4 |
| 20260906101157 | 18 | 113 | 1.6 | 3.2 | 0.00 | 0.00 | 0.00 | 95 | 1016.4 |
| 20260906100753 | 18 | 113 | 1.6 | 3.2 | 0.00 | 0.00 | 0.00 | 95 | 1016.4 |
| 20260906100657 | 18 | 113 | 1.6 | 3.2 | 0.00 | 0.00 | 0.00 | 95 | 1016.4 |
| 20260906100157 | 18 | 113 | 1.6 | 3.2 | 0.00 | 0.00 | 0.00 | 95 | 1016.4 |
| 20260906100057 | 18 | 113 | 1.6 | 3.2 | 0.00 | 0.00 | 0.00 | 95 | 1016.4 |
| 20260906095729 | 18 | 113 | 1.6 | 3.2 | 0.00 | 0.00 | 0.00 | 95 | 1016.4 |
| 20260906095657 | 18 | 113 | 1.6 | 3.2 | 0.00 | 0.00 | 0.00 | 95 | 1016.4 |
| 20260906095511 | 18 | 113 | 1.6 | 3.2 | 0.00 | 0.00 | 0.00 | 95 | 1016.3 |
| 20260906095157 | 18 | 113 | 1.6 | 3.2 | 0.00 | 0.00 | 0.00 | 95 | 1016.3 |
| 20260906094729 | 18 | 113 | 1.6 | 4.8 | 0.00 | 0.00 | 0.00 | 95 | 1016.3 |
| 20260906094657 | 18 | 113 | 1.6 | 4.8 | 0.00 | 0.00 | 0.00 | 95 | 1016.3 |
| 20260906094157 | 18 | 113 | 1.6 | 4.8 | 0.00 | 0.00 | 0.00 | 95 | 1016.2 |
| 20260906093730 | 18 | 113 | 3.2 | 4.8 | 0.00 | 0.00 | 0.00 | 95 | 1016.3 |
| 20260906093657 | 18 | 113 | 3.2 | 4.8 | 0.00 | 0.00 | 0.00 | 95 | 1016.3 |
| 20260906093157 | 18 | 113 | 4.8 | 6.4 | 0.00 | 0.00 | 0.00 | 95 | 1016.0 |
| 20260906093106 | 18 | 126 | 4.8 | 6.4 | 0.00 | 0.00 | 0.00 | 95 | 1015.9 |
| 20260906092728 | 18 | 126 | 4.8 | 6.4 | 0.00 | 0.00 | 0.00 | 95 | 1015.9 |
| 20260906092657 | 18 | 126 | 4.8 | 6.4 | 0.00 | 0.00 | 0.00 | 95 | 1015.9 |
| 20260906092446 | 18 | 123 | 4.8 | 6.4 | 0.00 | 0.00 | 0.00 | 95 | 1015.9 |
| 20260906092229 | 18 | 91 | 4.8 | 12.9 | 0.00 | 0.00 | 0.00 | 95 | 1015.6 |
| 20260906092157 | 18 | 123 | 4.8 | 6.4 | 0.00 | 0.00 | 0.00 | 95 | 1015.9 |
| 20260906091728 | 18 | 127 | 6.4 | 12.9 | 0.00 | 0.00 | 0.00 | 95 | 1015.6 |
| 20260906091657 | 18 | 127 | 6.4 | 12.9 | 0.00 | 0.00 | 0.00 | 95 | 1015.6 |
| 20260906091157 | 18 | 91 | 4.8 | 12.9 | 0.00 | 0.00 | 0.00 | 95 | 1015.6 |
| 20260906090944 | 18 | 135 | 4.8 | 8.0 | 0.00 | 0.00 | 0.00 | 95 | 1015.6 |
| 20260906090728 | 18 | 135 | 4.8 | 8.0 | 0.00 | 0.00 | 0.00 | 95 | 1015.6 |
| 20260906090657 | 18 | 135 | 4.8 | 8.0 | 0.00 | 0.00 | 0.00 | 95 | 1015.6 |
| 20260906090637 | 18 | 94 | 4.8 | 9.7 | 0.00 | 0.00 | 0.00 | 95 | 1015.6 |
| 20260906090235 | 18 | 94 | 4.8 | 9.7 | 0.00 | 0.00 | 0.00 | 95 | 1015.6 |
| 20260906090158 | 18 | 94 | 4.8 | 9.7 | 0.00 | 0.00 | 0.00 | 95 | 1015.6 |
| 20260906085657 | 18 | 83 | 4.8 | 9.7 | 0.00 | 0.00 | 0.00 | 95 | 1015.7 |
| 20260906085157 | 18 | 96 | 4.8 | 9.7 | 0.00 | 0.00 | 0.00 | 95 | 1015.7 |
| 20260906084809 | 18 | 124 | 4.8 | 9.7 | 0.00 | 0.00 | 0.00 | 95 | 1015.6 |
| 20260906084730 | 18 | 124 | 4.8 | 9.7 | 0.00 | 0.00 | 0.00 | 95 | 1015.6 |
| 20260906084657 | 18 | 124 | 4.8 | 9.7 | 0.00 | 0.00 | 0.00 | 95 | 1015.6 |
| 20260906084231 | 18 | 106 | 4.8 | 9.7 | 0.00 | 0.00 | 0.00 | 95 | 1015.4 |
| 20260906084158 | 18 | 106 | 4.8 | 9.7 | 0.00 | 0.00 | 0.00 | 95 | 1015.4 |
| 20260906083834 | 18 | 88 | 3.2 | 6.4 | 0.00 | 0.00 | 0.00 | 95 | 1015.4 |
| 20260906083800 | 18 | 88 | 3.2 | 6.4 | 0.00 | 0.00 | 0.00 | 95 | 1015.4 |
| 20260906083729 | 18 | 88 | 3.2 | 6.4 | 0.00 | 0.00 | 0.00 | 95 | 1015.4 |
| 20260906083657 | 18 | 88 | 3.2 | 6.4 | 0.00 | 0.00 | 0.00 | 95 | 1015.4 |
| 20260906083339 | 18 | 96 | 4.8 | 6.4 | 0.00 | 0.00 | 0.00 | 95 | 1015.3 |
| 20260906083233 | 18 | 96 | 4.8 | 6.4 | 0.00 | 0.00 | 0.00 | 95 | 1015.3 |
| 20260906083157 | 18 | 96 | 4.8 | 6.4 | 0.00 | 0.00 | 0.00 | 95 | 1015.3 |
| 20260906083059 | 18 | 109 | 3.2 | 6.4 | 0.00 | 0.00 | 0.00 | 94 | 1015.6 |
| 20260906082937 | 18 | 119 | 3.2 | 8.0 | 0.00 | 0.00 | 0.00 | 95 | 1015.5 |
| 20260906082730 | 18 | 119 | 3.2 | 8.0 | 0.00 | 0.00 | 0.00 | 95 | 1015.5 |
| 20260906082657 | 18 | 119 | 3.2 | 8.0 | 0.00 | 0.00 | 0.00 | 95 | 1015.5 |
| 20260906082524 | 18 | 117 | 3.2 | 6.4 | 0.00 | 0.00 | 0.00 | 95 | 1015.6 |
| 20260906082446 | 18 | 117 | 3.2 | 6.4 | 0.00 | 0.00 | 0.00 | 95 | 1015.6 |
| 20260906082232 | 18 | 117 | 3.2 | 6.4 | 0.00 | 0.00 | 0.00 | 95 | 1015.6 |
| 20260906082157 | 18 | 117 | 3.2 | 6.4 | 0.00 | 0.00 | 0.00 | 95 | 1015.6 |
| 20260906081731 | 18 | 125 | 3.2 | 6.4 | 0.00 | 0.00 | 0.00 | 95 | 1015.6 |
| 20260906081657 | 18 | 125 | 3.2 | 6.4 | 0.00 | 0.00 | 0.00 | 95 | 1015.6 |
| 20260906081229 | 18 | 126 | 1.6 | 4.8 | 0.00 | 0.00 | 0.00 | 95 | 1015.7 |
| 20260906081157 | 18 | 126 | 1.6 | 4.8 | 0.00 | 0.00 | 0.00 | 95 | 1015.7 |
| 20260906080728 | 18 | 103 | 1.6 | 4.8 | 0.00 | 0.00 | 0.00 | 95 | 1015.6 |
| 20260906080657 | 18 | 103 | 1.6 | 4.8 | 0.00 | 0.00 | 0.00 | 95 | 1015.6 |
| 20260906080529 | 18 | 103 | 3.2 | 4.8 | 0.00 | 0.00 | 0.00 | 95 | 1015.6 |
| 20260906080230 | 18 | 103 | 3.2 | 4.8 | 0.00 | 0.00 | 0.00 | 95 | 1015.6 |
| 20260906080158 | 18 | 103 | 3.2 | 4.8 | 0.00 | 0.00 | 0.00 | 95 | 1015.6 |
| 20260906075729 | 18 | 120 | 3.2 | 6.4 | 0.00 | 0.00 | 0.00 | 95 | 1015.5 |
| 20260906075657 | 18 | 120 | 3.2 | 6.4 | 0.00 | 0.00 | 0.00 | 95 | 1015.5 |
| 20260906075158 | 18 | 109 | 3.2 | 6.4 | 0.00 | 0.00 | 0.00 | 94 | 1015.6 |
| 20260906075106 | 18 | 89 | 3.2 | 4.8 | 0.00 | 0.00 | 0.00 | 94 | 1015.7 |
| 20260906074729 | 18 | 89 | 3.2 | 4.8 | 0.00 | 0.00 | 0.00 | 94 | 1015.7 |
| 20260906074657 | 18 | 89 | 3.2 | 4.8 | 0.00 | 0.00 | 0.00 | 94 | 1015.7 |
| 20260906074229 | 18 | 50 | 3.2 | 6.4 | 0.00 | 0.00 | 0.00 | 94 | 1015.8 |
| 20260906074157 | 18 | 50 | 3.2 | 6.4 | 0.00 | 0.00 | 0.00 | 94 | 1015.8 |
| 20260906074134 | 18 | 42 | 3.2 | 4.8 | 0.00 | 0.00 | 0.00 | 94 | 1015.8 |
| 20260906074046 | 18 | 42 | 3.2 | 4.8 | 0.00 | 0.00 | 0.00 | 94 | 1015.8 |
| 20260906073851 | 18 | 42 | 3.2 | 4.8 | 0.00 | 0.00 | 0.00 | 94 | 1015.8 |
| 20260906073821 | 18 | 42 | 3.2 | 4.8 | 0.00 | 0.00 | 0.00 | 94 | 1015.8 |
| 20260906073728 | 18 | 42 | 3.2 | 4.8 | 0.00 | 0.00 | 0.00 | 94 | 1015.8 |
| 20260906073657 | 18 | 42 | 3.2 | 4.8 | 0.00 | 0.00 | 0.00 | 94 | 1015.8 |
| 20260906073648 | 18 | 90 | 3.2 | 6.4 | 0.00 | 0.00 | 0.00 | 93 | 1015.8 |
| 20260906073158 | 18 | 90 | 3.2 | 6.4 | 0.00 | 0.00 | 0.00 | 93 | 1015.8 |
| 20260906072740 | 18 | 66 | 3.2 | 4.8 | 0.00 | 0.00 | 0.00 | 93 | 1015.9 |
| 20260906072658 | 18 | 66 | 3.2 | 4.8 | 0.00 | 0.00 | 0.00 | 93 | 1015.9 |
| 20260906072158 | 18 | 81 | 4.8 | 9.7 | 0.00 | 0.00 | 0.00 | 93 | 1015.8 |
| 20260906072105 | 18 | 103 | 4.8 | 9.7 | 0.00 | 0.00 | 0.00 | 93 | 1015.8 |
| 20260906071814 | 18 | 103 | 4.8 | 9.7 | 0.00 | 0.00 | 0.00 | 93 | 1015.8 |
| 20260906071736 | 18 | 103 | 4.8 | 9.7 | 0.00 | 0.00 | 0.00 | 93 | 1015.8 |
| 20260906071658 | 18 | 103 | 4.8 | 9.7 | 0.00 | 0.00 | 0.00 | 93 | 1015.8 |
| 20260906071309 | 19 | 92 | 3.2 | 6.4 | 0.00 | 0.00 | 0.00 | 93 | 1015.9 |
| 20260906071229 | 19 | 92 | 3.2 | 6.4 | 0.00 | 0.00 | 0.00 | 93 | 1015.9 |
| 20260906071158 | 19 | 92 | 3.2 | 6.4 | 0.00 | 0.00 | 0.00 | 93 | 1015.9 |
| 20260906070729 | 19 | 95 | 3.2 | 4.8 | 0.00 | 0.00 | 0.00 | 93 | 1016.0 |
| 20260906070658 | 19 | 95 | 3.2 | 4.8 | 0.00 | 0.00 | 0.00 | 93 | 1016.0 |
| 20260906070603 | 19 | 95 | 3.2 | 4.8 | 0.00 | 0.00 | 0.00 | 92 | 1016.0 |
| 20260906070158 | 19 | 95 | 3.2 | 4.8 | 0.00 | 0.00 | 0.00 | 92 | 1016.0 |
| 20260906070042 | 19 | 91 | 3.2 | 4.8 | 0.00 | 0.00 | 0.00 | 92 | 1016.3 |
| 20260906065804 | 19 | 91 | 3.2 | 4.8 | 0.00 | 0.00 | 0.00 | 92 | 1016.3 |
| 20260906065729 | 19 | 91 | 3.2 | 4.8 | 0.00 | 0.00 | 0.00 | 92 | 1016.3 |
| 20260906065658 | 19 | 91 | 3.2 | 4.8 | 0.00 | 0.00 | 0.00 | 92 | 1016.3 |
| 20260906065231 | 19 | 117 | 1.6 | 3.2 | 0.00 | 0.00 | 0.00 | 93 | 1016.2 |
| 20260906065158 | 19 | 117 | 1.6 | 3.2 | 0.00 | 0.00 | 0.00 | 93 | 1016.2 |
| 20260906064931 | 20 | 117 | 3.2 | 4.8 | 0.00 | 0.00 | 0.00 | 93 | 1016.2 |
| 20260906064807 | 20 | 117 | 3.2 | 4.8 | 0.00 | 0.00 | 0.00 | 93 | 1016.2 |
| 20260906064731 | 20 | 117 | 3.2 | 4.8 | 0.00 | 0.00 | 0.00 | 93 | 1016.2 |
| 20260906064658 | 20 | 117 | 3.2 | 4.8 | 0.00 | 0.00 | 0.00 | 93 | 1016.2 |
| 20260906064526 | 20 | 117 | 3.2 | 6.4 | 0.00 | 0.00 | 0.00 | 93 | 1016.2 |
| 20260906064158 | 20 | 117 | 3.2 | 6.4 | 0.00 | 0.00 | 0.00 | 93 | 1016.2 |
| 20260906064005 | 20 | 107 | 3.2 | 4.8 | 0.00 | 0.00 | 0.00 | 93 | 1016.2 |
| 20260906063730 | 20 | 107 | 3.2 | 4.8 | 0.00 | 0.00 | 0.00 | 93 | 1016.2 |
| 20260906063658 | 20 | 107 | 3.2 | 4.8 | 0.00 | 0.00 | 0.00 | 93 | 1016.2 |
| 20260906063532 | 19 | 107 | 3.2 | 6.4 | 0.00 | 0.00 | 0.00 | 93 | 1016.4 |
| 20260906063245 | 19 | 107 | 3.2 | 6.4 | 0.00 | 0.00 | 0.00 | 93 | 1016.4 |
| 20260906063158 | 19 | 107 | 3.2 | 6.4 | 0.00 | 0.00 | 0.00 | 93 | 1016.4 |
| 20260906062742 | 19 | 107 | 3.2 | 4.8 | 0.00 | 0.00 | 0.00 | 93 | 1016.3 |
| 20260906062658 | 19 | 107 | 3.2 | 4.8 | 0.00 | 0.00 | 0.00 | 93 | 1016.3 |
| 20260906062452 | 19 | 107 | 1.6 | 3.2 | 0.00 | 0.00 | 0.00 | 93 | 1016.3 |
| 20260906062158 | 19 | 107 | 1.6 | 3.2 | 0.00 | 0.00 | 0.00 | 93 | 1016.3 |
| 20260906061944 | 19 | 107 | 1.6 | 3.2 | 0.00 | 0.00 | 0.00 | 93 | 1016.4 |
| 20260906061729 | 19 | 107 | 1.6 | 3.2 | 0.00 | 0.00 | 0.00 | 93 | 1016.4 |
| 20260906061658 | 19 | 107 | 1.6 | 3.2 | 0.00 | 0.00 | 0.00 | 93 | 1016.4 |
| 20260906061435 | 19 | 107 | 1.6 | 3.2 | 0.00 | 0.00 | 0.00 | 93 | 1016.4 |
| 20260906061158 | 19 | 107 | 1.6 | 3.2 | 0.00 | 0.00 | 0.00 | 93 | 1016.4 |
| 20260906060957 | 19 | 83 | 1.6 | 3.2 | 0.00 | 0.00 | 0.00 | 93 | 1016.4 |
| 20260906060728 | 19 | 83 | 1.6 | 3.2 | 0.00 | 0.00 | 0.00 | 93 | 1016.4 |
| 20260906060658 | 19 | 83 | 1.6 | 3.2 | 0.00 | 0.00 | 0.00 | 93 | 1016.4 |
| 20260906060430 | 19 | 52 | 1.6 | 4.8 | 0.00 | 0.00 | 0.00 | 93 | 1016.3 |
| 20260906060158 | 19 | 52 | 1.6 | 4.8 | 0.00 | 0.00 | 0.00 | 93 | 1016.3 |
| 20260906055803 | 19 | 91 | 1.6 | 4.8 | 0.00 | 0.00 | 0.00 | 93 | 1016.3 |
| 20260906055658 | 19 | 91 | 1.6 | 4.8 | 0.00 | 0.00 | 0.00 | 93 | 1016.3 |
| 20260906055229 | 19 | 84 | 3.2 | 6.4 | 0.00 | 0.00 | 0.00 | 93 | 1016.2 |
| 20260906055158 | 19 | 84 | 3.2 | 6.4 | 0.00 | 0.00 | 0.00 | 93 | 1016.2 |
| 20260906054729 | 19 | 90 | 4.8 | 6.4 | 0.00 | 0.00 | 0.00 | 92 | 1016.2 |
| 20260906054658 | 19 | 90 | 4.8 | 6.4 | 0.00 | 0.00 | 0.00 | 92 | 1016.2 |
| 20260906054448 | 19 | 97 | 3.2 | 6.4 | 0.00 | 0.00 | 0.00 | 92 | 1016.2 |
| 20260906054229 | 19 | 97 | 3.2 | 6.4 | 0.00 | 0.00 | 0.00 | 92 | 1016.2 |
| 20260906054158 | 19 | 97 | 3.2 | 6.4 | 0.00 | 0.00 | 0.00 | 92 | 1016.2 |
| 20260906053729 | 19 | 98 | 1.6 | 4.8 | 0.00 | 0.00 | 0.00 | 92 | 1016.2 |
| 20260906053658 | 19 | 98 | 1.6 | 4.8 | 0.00 | 0.00 | 0.00 | 92 | 1016.2 |
| 20260906053449 | 19 | 48 | 1.6 | 3.2 | 0.00 | 0.00 | 0.00 | 92 | 1016.4 |
| 20260906053240 | 19 | 48 | 1.6 | 3.2 | 0.00 | 0.00 | 0.00 | 92 | 1016.4 |
| 20260906053158 | 19 | 48 | 1.6 | 3.2 | 0.00 | 0.00 | 0.00 | 92 | 1016.4 |
| 20260906052729 | 19 | 91 | 3.2 | 4.8 | 0.00 | 0.00 | 0.00 | 92 | 1016.3 |
| 20260906052658 | 19 | 91 | 3.2 | 4.8 | 0.00 | 0.00 | 0.00 | 92 | 1016.3 |
| 20260906052440 | 19 | 91 | 4.8 | 6.4 | 0.00 | 0.00 | 0.00 | 92 | 1016.3 |
| 20260906052158 | 19 | 91 | 4.8 | 6.4 | 0.00 | 0.00 | 0.00 | 92 | 1016.3 |
| 20260906051730 | 19 | 88 | 4.8 | 6.4 | 0.00 | 0.00 | 0.00 | 92 | 1016.2 |
| 20260906051658 | 19 | 88 | 4.8 | 6.4 | 0.00 | 0.00 | 0.00 | 92 | 1016.2 |
| 20260906051536 | 19 | 89 | 3.2 | 6.4 | 0.00 | 0.00 | 0.00 | 92 | 1016.2 |
| 20260906051500 | 19 | 89 | 3.2 | 6.4 | 0.00 | 0.00 | 0.00 | 92 | 1016.2 |
| 20260906051251 | 19 | 89 | 3.2 | 6.4 | 0.00 | 0.00 | 0.00 | 92 | 1016.2 |
| 20260906051158 | 19 | 89 | 3.2 | 6.4 | 0.00 | 0.00 | 0.00 | 92 | 1016.2 |
| 20260906050658 | 19 | 92 | 3.2 | 6.4 | 0.00 | 0.00 | 0.00 | 92 | 1016.3 |
| 20260906050633 | 19 | 98 | 3.2 | 6.4 | 0.00 | 0.00 | 0.00 | 92 | 1016.2 |
| 20260906050239 | 19 | 98 | 3.2 | 6.4 | 0.00 | 0.00 | 0.00 | 92 | 1016.2 |
| 20260906050158 | 19 | 98 | 3.2 | 6.4 | 0.00 | 0.00 | 0.00 | 92 | 1016.2 |
| 20260906045729 | 19 | 90 | 3.2 | 4.8 | 0.00 | 0.00 | 0.00 | 91 | 1016.1 |
| 20260906045658 | 19 | 90 | 3.2 | 4.8 | 0.00 | 0.00 | 0.00 | 91 | 1016.1 |
| 20260906045158 | 20 | 92 | 3.2 | 6.4 | 0.00 | 0.00 | 0.00 | 91 | 1016.1 |
| 20260906044734 | 20 | 91 | 3.2 | 8.0 | 0.00 | 0.00 | 0.00 | 91 | 1016.2 |
| 20260906044658 | 20 | 91 | 3.2 | 8.0 | 0.00 | 0.00 | 0.00 | 91 | 1016.2 |
| 20260906044158 | 20 | 128 | 4.8 | 11.3 | 0.00 | 0.00 | 0.00 | 90 | 1016.1 |
| 20260906043658 | 20 | 125 | 4.8 | 9.7 | 0.00 | 0.00 | 0.00 | 90 | 1016.0 |
| 20260906043554 | 20 | 115 | 4.8 | 9.7 | 0.00 | 0.00 | 0.00 | 90 | 1016.0 |
| 20260906043158 | 20 | 115 | 4.8 | 9.7 | 0.00 | 0.00 | 0.00 | 90 | 1016.0 |
| 20260906042729 | 20 | 117 | 6.4 | 9.7 | 0.00 | 0.00 | 0.00 | 90 | 1016.0 |
| 20260906042658 | 20 | 117 | 6.4 | 9.7 | 0.00 | 0.00 | 0.00 | 90 | 1016.0 |
| 20260906042230 | 20 | 121 | 6.4 | 12.9 | 0.00 | 0.00 | 0.00 | 90 | 1015.9 |
| 20260906042158 | 20 | 121 | 6.4 | 12.9 | 0.00 | 0.00 | 0.00 | 90 | 1015.9 |
| 20260906041658 | 20 | 105 | 8.0 | 11.3 | 0.00 | 0.00 | 0.00 | 90 | 1016.1 |
| 20260906041158 | 20 | 118 | 6.4 | 12.9 | 0.00 | 0.00 | 0.00 | 89 | 1016.2 |
| 20260906040658 | 20 | 121 | 6.4 | 9.7 | 0.00 | 0.00 | 0.00 | 89 | 1016.3 |
| 20260906040229 | 20 | 98 | 6.4 | 11.3 | 0.00 | 0.00 | 0.00 | 90 | 1016.3 |
| 20260906040158 | 20 | 98 | 6.4 | 11.3 | 0.00 | 0.00 | 0.00 | 90 | 1016.3 |
| 20260906035658 | 20 | 115 | 6.4 | 12.9 | 0.00 | 0.00 | 0.00 | 90 | 1016.1 |
| 20260906035519 | 20 | 118 | 4.8 | 12.9 | 0.00 | 0.00 | 0.00 | 90 | 1016.0 |
| 20260906035158 | 20 | 118 | 4.8 | 12.9 | 0.00 | 0.00 | 0.00 | 90 | 1016.0 |
| 20260906034732 | 20 | 92 | 4.8 | 9.7 | 0.00 | 0.00 | 0.00 | 90 | 1016.2 |
| 20260906034658 | 20 | 92 | 4.8 | 9.7 | 0.00 | 0.00 | 0.00 | 90 | 1016.2 |
| 20260906034158 | 20 | 111 | 3.2 | 9.7 | 0.00 | 0.00 | 0.00 | 90 | 1016.3 |
| 20260906033709 | 20 | 90 | 4.8 | 6.4 | 0.00 | 0.00 | 0.00 | 90 | 1016.4 |
| 20260906033658 | 20 | 86 | 3.2 | 9.7 | 0.00 | 0.00 | 0.00 | 90 | 1016.3 |
| 20260906033232 | 20 | 90 | 4.8 | 6.4 | 0.00 | 0.00 | 0.00 | 90 | 1016.4 |
| 20260906033158 | 20 | 90 | 4.8 | 6.4 | 0.00 | 0.00 | 0.00 | 90 | 1016.4 |
| 20260906032730 | 20 | 87 | 6.4 | 11.3 | 0.00 | 0.00 | 0.00 | 90 | 1016.4 |
| 20260906032658 | 20 | 87 | 6.4 | 11.3 | 0.00 | 0.00 | 0.00 | 90 | 1016.4 |
| 20260906032158 | 20 | 92 | 6.4 | 9.7 | 0.00 | 0.00 | 0.00 | 90 | 1016.4 |
| 20260906032053 | 20 | 89 | 6.4 | 11.3 | 0.00 | 0.00 | 0.00 | 90 | 1016.3 |
| 20260906031658 | 20 | 89 | 6.4 | 11.3 | 0.00 | 0.00 | 0.00 | 90 | 1016.3 |
| 20260906031251 | 20 | 87 | 6.4 | 9.7 | 0.00 | 0.00 | 0.00 | 89 | 1016.1 |
| 20260906031158 | 20 | 87 | 6.4 | 9.7 | 0.00 | 0.00 | 0.00 | 89 | 1016.1 |
| 20260906030946 | 20 | 94 | 6.4 | 11.3 | 0.00 | 0.00 | 0.00 | 89 | 1016.1 |
| 20260906030735 | 20 | 94 | 6.4 | 11.3 | 0.00 | 0.00 | 0.00 | 89 | 1016.1 |
| 20260906030658 | 20 | 94 | 6.4 | 11.3 | 0.00 | 0.00 | 0.00 | 89 | 1016.1 |
| 20260906030158 | 20 | 91 | 6.4 | 11.3 | 0.00 | 0.00 | 0.00 | 89 | 1016.1 |
| 20260906025729 | 20 | 86 | 4.8 | 9.7 | 0.00 | 0.00 | 0.00 | 88 | 1016.1 |
| 20260906025658 | 20 | 86 | 4.8 | 9.7 | 0.00 | 0.00 | 0.00 | 88 | 1016.1 |
| 20260906025549 | 20 | 94 | 3.2 | 8.0 | 0.00 | 0.00 | 0.00 | 87 | 1016.1 |
| 20260906025158 | 20 | 94 | 3.2 | 8.0 | 0.00 | 0.00 | 0.00 | 87 | 1016.1 |
| 20260906024732 | 21 | 71 | 3.2 | 6.4 | 0.00 | 0.00 | 0.00 | 87 | 1016.3 |
| 20260906024658 | 21 | 71 | 3.2 | 6.4 | 0.00 | 0.00 | 0.00 | 87 | 1016.3 |
| 20260906024158 | 21 | 73 | 3.2 | 9.7 | 0.00 | 0.00 | 0.00 | 87 | 1016.5 |
| 20260906023658 | 21 | 59 | 3.2 | 8.0 | 0.00 | 0.00 | 0.00 | 87 | 1016.5 |
| 20260906023230 | 21 | 91 | 3.2 | 6.4 | 0.00 | 0.00 | 0.00 | 86 | 1016.3 |
| 20260906023158 | 21 | 91 | 3.2 | 6.4 | 0.00 | 0.00 | 0.00 | 86 | 1016.3 |
| 20260906022658 | 21 | 55 | 3.2 | 8.0 | 0.00 | 0.00 | 0.00 | 86 | 1016.2 |
| 20260906022158 | 21 | 95 | 3.2 | 8.0 | 0.00 | 0.00 | 0.00 | 86 | 1016.3 |
| 20260906021744 | 21 | 98 | 3.2 | 6.4 | 0.00 | 0.00 | 0.00 | 86 | 1016.2 |
| 20260906021708 | 21 | 98 | 3.2 | 6.4 | 0.00 | 0.00 | 0.00 | 86 | 1016.2 |
| 20260906021658 | 21 | 98 | 3.2 | 6.4 | 0.00 | 0.00 | 0.00 | 86 | 1016.2 |
| 20260906021158 | 21 | 52 | 3.2 | 4.8 | 0.00 | 0.00 | 0.00 | 86 | 1016.2 |
| 20260906020658 | 21 | 44 | 3.2 | 4.8 | 0.00 | 0.00 | 0.00 | 86 | 1016.2 |
| 20260906020158 | 21 | 53 | 3.2 | 4.8 | 0.00 | 0.00 | 0.00 | 86 | 1016.1 |
| 20260906015658 | 21 | 57 | 3.2 | 4.8 | 0.00 | 0.00 | 0.00 | 85 | 1016.1 |
| 20260906015549 | 21 | 89 | 3.2 | 6.4 | 0.00 | 0.00 | 0.00 | 85 | 1016.1 |
| 20260906015253 | 21 | 89 | 3.2 | 6.4 | 0.00 | 0.00 | 0.00 | 85 | 1016.1 |
| 20260906015158 | 21 | 89 | 3.2 | 6.4 | 0.00 | 0.00 | 0.00 | 85 | 1016.1 |
| 20260906015100 | 21 | 102 | 3.2 | 8.0 | 0.00 | 0.00 | 0.00 | 85 | 1016.1 |
| 20260906014800 | 21 | 102 | 3.2 | 8.0 | 0.00 | 0.00 | 0.00 | 85 | 1016.1 |
| 20260906014729 | 21 | 102 | 3.2 | 8.0 | 0.00 | 0.00 | 0.00 | 85 | 1016.1 |
| 20260906014658 | 21 | 102 | 3.2 | 8.0 | 0.00 | 0.00 | 0.00 | 85 | 1016.1 |
| 20260906014158 | 21 | 54 | 3.2 | 6.4 | 0.00 | 0.00 | 0.00 | 84 | 1016.0 |
| 20260906013658 | 22 | 46 | 3.2 | 9.7 | 0.00 | 0.00 | 0.00 | 84 | 1015.7 |
| 20260906013501 | 22 | 79 | 3.2 | 6.4 | 0.00 | 0.00 | 0.00 | 84 | 1015.7 |
| 20260906013356 | 22 | 79 | 3.2 | 6.4 | 0.00 | 0.00 | 0.00 | 84 | 1015.7 |
| 20260906013158 | 22 | 79 | 3.2 | 6.4 | 0.00 | 0.00 | 0.00 | 84 | 1015.7 |
| 20260906013024 | 22 | 76 | 3.2 | 6.4 | 0.00 | 0.00 | 0.00 | 83 | 1015.5 |
| 20260906012658 | 22 | 76 | 3.2 | 6.4 | 0.00 | 0.00 | 0.00 | 83 | 1015.5 |
| 20260906012525 | 22 | 49 | 3.2 | 6.4 | 0.00 | 0.00 | 0.00 | 83 | 1015.4 |
| 20260906012158 | 22 | 49 | 3.2 | 6.4 | 0.00 | 0.00 | 0.00 | 83 | 1015.4 |
| 20260906012035 | 22 | 76 | 3.2 | 6.4 | 0.00 | 0.00 | 0.00 | 83 | 1015.4 |
| 20260906011730 | 22 | 76 | 3.2 | 6.4 | 0.00 | 0.00 | 0.00 | 83 | 1015.4 |
| 20260906011658 | 22 | 76 | 3.2 | 6.4 | 0.00 | 0.00 | 0.00 | 83 | 1015.4 |
| 20260906011628 | 22 | 55 | 4.8 | 6.4 | 0.00 | 0.00 | 0.00 | 82 | 1015.3 |
| 20260906011229 | 22 | 55 | 4.8 | 6.4 | 0.00 | 0.00 | 0.00 | 82 | 1015.3 |
| 20260906011158 | 22 | 55 | 4.8 | 6.4 | 0.00 | 0.00 | 0.00 | 82 | 1015.3 |
| 20260906011000 | 22 | 49 | 4.8 | 9.7 | 0.00 | 0.00 | 0.00 | 82 | 1015.1 |
| 20260906010732 | 22 | 49 | 4.8 | 9.7 | 0.00 | 0.00 | 0.00 | 82 | 1015.1 |
| 20260906010658 | 22 | 49 | 4.8 | 9.7 | 0.00 | 0.00 | 0.00 | 82 | 1015.1 |
| 20260906010158 | 22 | 49 | 3.2 | 8.0 | 0.00 | 0.00 | 0.00 | 82 | 1015.1 |
| 20260906005729 | 22 | 50 | 3.2 | 6.4 | 0.00 | 0.00 | 0.00 | 82 | 1014.9 |
| 20260906005658 | 22 | 50 | 3.2 | 6.4 | 0.00 | 0.00 | 0.00 | 82 | 1014.9 |
| 20260906005438 | 22 | 68 | 4.8 | 11.3 | 0.00 | 0.00 | 0.00 | 82 | 1014.6 |
| 20260906005231 | 22 | 68 | 4.8 | 11.3 | 0.00 | 0.00 | 0.00 | 82 | 1014.6 |
| 20260906005158 | 22 | 68 | 4.8 | 11.3 | 0.00 | 0.00 | 0.00 | 82 | 1014.6 |
| 20260906005028 | 23 | 96 | 4.8 | 9.7 | 0.00 | 0.00 | 0.00 | 81 | 1014.5 |
| 20260906004729 | 23 | 96 | 4.8 | 9.7 | 0.00 | 0.00 | 0.00 | 81 | 1014.5 |
| 20260906004658 | 23 | 96 | 4.8 | 9.7 | 0.00 | 0.00 | 0.00 | 81 | 1014.5 |
| 20260906004517 | 23 | 61 | 3.2 | 6.4 | 0.00 | 0.00 | 0.00 | 80 | 1014.4 |
| 20260906004230 | 23 | 61 | 3.2 | 6.4 | 0.00 | 0.00 | 0.00 | 80 | 1014.4 |
| 20260906004158 | 23 | 61 | 3.2 | 6.4 | 0.00 | 0.00 | 0.00 | 80 | 1014.4 |
| 20260906003729 | 23 | 99 | 3.2 | 6.4 | 0.00 | 0.00 | 0.00 | 80 | 1014.2 |
| 20260906003658 | 23 | 99 | 3.2 | 6.4 | 0.00 | 0.00 | 0.00 | 80 | 1014.2 |
| 20260906003158 | 23 | 120 | 4.8 | 6.4 | 0.00 | 0.00 | 0.00 | 79 | 1014.1 |
| 20260906003049 | 23 | 91 | 4.8 | 11.3 | 0.00 | 0.00 | 0.00 | 79 | 1014.0 |
| 20260906002658 | 23 | 91 | 4.8 | 11.3 | 0.00 | 0.00 | 0.00 | 79 | 1014.0 |
| 20260906002502 | 23 | 93 | 4.8 | 8.0 | 0.00 | 0.00 | 0.00 | 78 | 1013.7 |
| 20260906002158 | 23 | 93 | 4.8 | 8.0 | 0.00 | 0.00 | 0.00 | 78 | 1013.7 |
| 20260906001731 | 24 | 126 | 6.4 | 12.9 | 0.00 | 0.00 | 0.00 | 78 | 1013.7 |
| 20260906001658 | 24 | 126 | 6.4 | 12.9 | 0.00 | 0.00 | 0.00 | 78 | 1013.7 |
| 20260906001412 | 24 | 115 | 6.4 | 11.3 | 0.00 | 0.00 | 0.00 | 77 | 1013.7 |
| 20260906001158 | 24 | 115 | 6.4 | 11.3 | 0.00 | 0.00 | 0.00 | 77 | 1013.7 |
| 20260906001058 | 24 | 99 | 8.0 | 14.5 | 0.00 | 0.00 | 0.00 | 77 | 1013.6 |
| 20260906000809 | 24 | 99 | 8.0 | 14.5 | 0.00 | 0.00 | 0.00 | 77 | 1013.6 |
| 20260906000729 | 24 | 99 | 8.0 | 14.5 | 0.00 | 0.00 | 0.00 | 77 | 1013.6 |
| 20260906000658 | 24 | 99 | 8.0 | 14.5 | 0.00 | 0.00 | 0.00 | 77 | 1013.6 |
| 20260906000158 | 24 | 114 | 6.4 | 16.1 | 0.00 | 0.00 | 0.00 | 76 | 1013.8 |
| 20260905235658 | 24 | 122 | 6.4 | 12.9 | 0.00 | 0.00 | 0.00 | 76 | 1013.8 |
| 20260905235158 | 25 | 159 | 8.0 | 17.7 | 0.00 | 0.00 | 0.00 | 76 | 1013.8 |
| 20260905234659 | 25 | 121 | 8.0 | 16.1 | 0.00 | 0.00 | 0.00 | 75 | 1013.6 |
| 20260905234158 | 25 | 121 | 8.0 | 17.7 | 0.00 | 0.00 | 0.00 | 75 | 1013.6 |
| 20260905233812 | 25 | 92 | 8.0 | 16.1 | 0.00 | 0.00 | 0.00 | 74 | 1013.6 |
| 20260905233736 | 25 | 92 | 8.0 | 16.1 | 0.00 | 0.00 | 0.00 | 74 | 1013.6 |
| 20260905233658 | 25 | 92 | 8.0 | 16.1 | 0.00 | 0.00 | 0.00 | 74 | 1013.6 |
| 20260905233158 | 25 | 121 | 9.7 | 19.3 | 0.00 | 0.00 | 0.00 | 74 | 1013.7 |
| 20260905232736 | 25 | 114 | 9.7 | 20.9 | 0.00 | 0.00 | 0.00 | 74 | 1013.5 |
| 20260905232658 | 25 | 114 | 9.7 | 20.9 | 0.00 | 0.00 | 0.00 | 74 | 1013.5 |
| 20260905232158 | 25 | 109 | 11.3 | 19.3 | 0.00 | 0.00 | 0.00 | 74 | 1013.2 |
| 20260905231658 | 25 | 118 | 11.3 | 19.3 | 0.00 | 0.00 | 0.00 | 72 | 1013.3 |
| 20260905231158 | 26 | 106 | 11.3 | 16.1 | 0.00 | 0.00 | 0.00 | 72 | 1013.3 |
| 20260905230658 | 26 | 105 | 11.3 | 24.1 | 0.00 | 0.00 | 0.00 | 71 | 1013.5 |
| 20260905230158 | 26 | 124 | 11.3 | 22.5 | 0.00 | 0.00 | 0.00 | 70 | 1013.8 |
| 20260905225658 | 26 | 88 | 11.3 | 20.9 | 0.00 | 0.00 | 0.00 | 70 | 1013.5 |
| 20260905225158 | 26 | 137 | 9.7 | 17.7 | 0.00 | 0.00 | 0.00 | 69 | 1013.5 |
| 20260905224730 | 26 | 103 | 9.7 | 19.3 | 0.00 | 0.00 | 0.00 | 70 | 1013.5 |
| 20260905224658 | 26 | 103 | 9.7 | 19.3 | 0.00 | 0.00 | 0.00 | 70 | 1013.5 |
| 20260905224158 | 26 | 79 | 9.7 | 19.3 | 0.00 | 0.00 | 0.00 | 71 | 1013.7 |
| 20260905223658 | 26 | 55 | 8.0 | 16.1 | 0.00 | 0.00 | 0.00 | 70 | 1013.7 |
| 20260905223158 | 26 | 112 | 9.7 | 16.1 | 0.00 | 0.00 | 0.00 | 69 | 1013.7 |
| 20260905223115 | 26 | 44 | 11.3 | 22.5 | 0.00 | 0.00 | 0.00 | 68 | 1013.8 |
| 20260905222658 | 26 | 44 | 11.3 | 22.5 | 0.00 | 0.00 | 0.00 | 68 | 1013.8 |
| 20260905222158 | 26 | 109 | 9.7 | 17.7 | 0.00 | 0.00 | 0.00 | 68 | 1013.9 |
| 20260905221731 | 26 | 108 | 9.7 | 20.9 | 0.00 | 0.00 | 0.00 | 68 | 1013.9 |
| 20260905221658 | 26 | 108 | 9.7 | 20.9 | 0.00 | 0.00 | 0.00 | 68 | 1013.9 |
| 20260905221158 | 26 | 88 | 11.3 | 17.7 | 0.00 | 0.00 | 0.00 | 68 | 1014.0 |
| 20260905220658 | 26 | 96 | 11.3 | 20.9 | 0.00 | 0.00 | 0.00 | 67 | 1013.9 |
| 20260905220509 | 26 | 113 | 11.3 | 19.3 | 0.00 | 0.00 | 0.00 | 68 | 1014.0 |
| 20260905220159 | 26 | 78 | 11.3 | 19.3 | 0.00 | 0.00 | 0.00 | 68 | 1013.9 |
| 20260905215658 | 26 | 113 | 11.3 | 19.3 | 0.00 | 0.00 | 0.00 | 68 | 1014.0 |
| 20260905215159 | 27 | 88 | 9.7 | 19.3 | 0.00 | 0.00 | 0.00 | 68 | 1014.1 |
| 20260905214802 | 27 | 67 | 9.7 | 20.9 | 0.00 | 0.00 | 0.00 | 69 | 1014.1 |
| 20260905214732 | 27 | 67 | 9.7 | 20.9 | 0.00 | 0.00 | 0.00 | 69 | 1014.1 |
| 20260905214659 | 27 | 67 | 9.7 | 20.9 | 0.00 | 0.00 | 0.00 | 69 | 1014.1 |
| 20260905214159 | 27 | 92 | 8.0 | 16.1 | 0.00 | 0.00 | 0.00 | 69 | 1014.1 |
| 20260905213659 | 27 | 87 | 9.7 | 17.7 | 0.00 | 0.00 | 0.00 | 69 | 1014.3 |
| 20260905213159 | 26 | 96 | 11.3 | 19.3 | 0.00 | 0.00 | 0.00 | 70 | 1014.3 |
| 20260905213005 | 26 | 90 | 8.0 | 14.5 | 0.00 | 0.00 | 0.00 | 71 | 1014.4 |
| 20260905212659 | 26 | 96 | 11.3 | 20.9 | 0.00 | 0.00 | 0.00 | 70 | 1014.3 |
| 20260905212159 | 26 | 69 | 9.7 | 19.3 | 0.00 | 0.00 | 0.00 | 70 | 1014.3 |
| 20260905211731 | 26 | 90 | 8.0 | 14.5 | 0.00 | 0.00 | 0.00 | 71 | 1014.4 |
| 20260905211659 | 26 | 90 | 8.0 | 14.5 | 0.00 | 0.00 | 0.00 | 71 | 1014.4 |
| 20260905211618 | 26 | 78 | 9.7 | 16.1 | 0.00 | 0.00 | 0.00 | 72 | 1014.2 |
| 20260905211159 | 26 | 78 | 9.7 | 16.1 | 0.00 | 0.00 | 0.00 | 72 | 1014.2 |
| 20260905210731 | 26 | 98 | 11.3 | 19.3 | 0.00 | 0.00 | 0.00 | 72 | 1014.2 |
| 20260905210659 | 26 | 98 | 11.3 | 19.3 | 0.00 | 0.00 | 0.00 | 72 | 1014.2 |
| 20260905210159 | 26 | 71 | 9.7 | 20.9 | 0.00 | 0.00 | 0.00 | 72 | 1014.1 |